Temperature
15 15 15 14 14 14 14 14 15 16 17 17 17 15 14 13 12 11 11 11 11 10 10 10 10 10 11 11 11 11 11 11 11 10 10 10 9 8 7 6 5 3 1 0
13 14 13 13 13 14 14 14 15 15 15 16 14 13 13 13 12 11 11 10 10 10 10 10 9 9 9 10 10 10 10 10 10 10 9 9 8 8 7 6 4 3 1 -0
13 12 11 12 14 14 14 14 14 14 15 14 13 13 12 12 11 11 10 10 9 9 9 9 8 8 8 8 9 9 9 9 9 9 9 8 8 7 6 5 3 2 1 -1
11 11 10 15 14 13 13 14 14 13 13 13 12 11 11 11 10 10 10 9 9 8 8 8 7 7 8 8 8 8 8 8 8 8 7 7 6 6 5 4 3 1 -0 -2
10 10 12 14 13 12 12 13 13 12 12 11 11 11 12 11 10 9 8 8 8 7 7 7 7 7 7 7 7 7 7 7 7 7 6 6 5 5 4 3 2 1 -1 -2
9 8 10 14 12 10 11 12 12 11 11 11 11 10 11 10 9 8 8 7 7 7 7 7 6 6 6 6 6 5 5 5 6 5 5 4 4 4 3 2 1 -1 -2 -3
9 9 12 13 10 10 12 13 11 11 11 10 10 9 9 8 8 7 7 7 6 6 6 7 6 6 5 5 4 4 4 4 4 4 4 3 3 3 2 0 -1 -2 -3 -4
9 9 10 12 9 12 13 12 11 10 10 9 8 8 8 7 7 6 6 6 6 6 6 6 6 5 4 4 4 3 3 3 3 3 3 2 2 2 1 -1 -2 -3 -5 -6
11 12 13 10 11 11 10 10 9 9 8 8 7 7 6 6 5 5 5 5 5 5 5 5 5 4 3 3 2 2 2 2 2 2 2 1 1 1 -1 -2 -3 -4 -6 -6
10 11 11 11 10 10 9 9 8 7 7 6 6 5 5 4 4 4 5 5 4 4 4 4 4 4 3 2 2 1 1 1 1 1 1 1 0 -0 -1 -2 -3 -4 -6 -6
10 11 10 10 9 8 7 7 6 6 5 5 4 4 3 4 4 4 4 4 4 4 3 3 3 2 2 1 1 0 0 0 -0 -0 -0 -0 -0 -1 -1 -2 -4 -5 -6 -6
10 10 10 9 8 7 6 5 5 4 4 4 3 3 3 3 3 3 3 3 3 3 2 2 1 1 2 1 0 -0 -1 -1 -1 -1 -1 -1 -1 -1 -1 -2 -3 -5 -6 -7
8 8 7 6 6 5 4 4 3 3 3 3 3 3 2 2 3 3 3 3 2 1 1 1 0 1 1 -0 -1 -1 -1 -1 -1 -1 -1 -1 -1 -2 -2 -3 -4 -5 -6 -7
6 5 5 5 4 3 3 3 3 3 3 3 2 2 2 2 2 2 2 2 1 1 0 -0 -1 -0 -0 -1 -1 -1 -1 -1 -2 -2 -2 -2 -2 -2 -3 -4 -5 -5 -6 -6
4 4 3 3 3 3 3 2 2 2 2 2 2 2 2 1 1 1 1 1 -0 -1 -1 -1 -1 -1 -1 -1 -1 -1 -2 -2 -2 -2 -2 -2 -2 -3 -3 -4 -5 -6 -7 -7
3 3 3 3 2 2 2 2 2 2 2 1 1 1 1 1 1 0 -0 -1 -2 -2 -1 -1 -1 -1 -1 -2 -2 -2 -2 -2 -2 -2 -2 -2 -3 -3 -3 -4 -6 -7 -7 -7
3 3 2 2 2 2 2 1 1 1 1 1 1 0 0 -0 -1 -1 -1 -2 -2 -1 -1 -1 -2 -2 -2 -2 -2 -2 -2 -2 -2 -2 -2 -3 -3 -3 -4 -4 -5 -7 -7 -7
3 3 2 2 2 1 1 1 1 1 0 0 -0 -1 -1 -2 -2 -2 -2 -2 -2 -2 -1 -2 -2 -2 -2 -2 -2 -3 -3 -3 -3 -3 -3 -3 -3 -3 -4 -4 -5 -6 -7 -8
3 2 2 2 1 1 1 1 0 0 -0 -0 -1 -1 -2 -2 -2 -2 -3 -3 -3 -3 -2 -2 -2 -2 -2 -2 -3 -3 -3 -3 -3 -3 -3 -3 -3 -3 -4 -4 -5 -6 -7 -8
2 2 2 2 1 1 1 0 -0 -1 -1 -1 -1 -2 -2 -2 -2 -3 -3 -3 -3 -3 -3 -4 -3 -3 -3 -3 -3 -3 -3 -3 -3 -3 -3 -3 -3 -3 -4 -5 -6 -7 -7 -8
2 2 2 1 1 0 -0 -0 -1 -1 -1 -1 -2 -2 -2 -3 -3 -3 -4 -4 -3 -4 -4 -5 -5 -4 -4 -4 -4 -3 -3 -3 -3 -3 -3 -3 -3 -4 -4 -5 -6 -7 -8 -8
2 1 1 0 -0 -0 -1 -1 -1 -1 -1 -2 -2 -2 -3 -3 -4 -4 -4 -4 -5 -5 -5 -5 -5 -4 -4 -4 -4 -3 -3 -3 -3 -3 -3 -3 -4 -4 -5 -5 -6 -7 -8 -8
1 0 0 -0 -1 -1 -1 -1 -1 -1 -2 -2 -2 -3 -3 -4 -5 -5 -5 -5 -5 -5 -6 -6 -5 -4 -4 -4 -3 -3 -3 -3 -3 -3 -3 -4 -4 -5 -5 -6 -6 -7 -8 -8
0 -0 -0 -1 -1 -1 -1 -1 -1 -2 -2 -2 -3 -3 -4 -5 -5 -5 -6 -6 -6 -6 -6 -5 -4 -4 -4 -4 -3 -3 -3 -3 -3 -3 -4 -4 -5 -5 -6 -6 -7 -7 -8 -8
0 -0 -1 -1 -1 -2 -2 -2 -2 -3 -3 -4 -4 -4 -5 -5 -6 -6 -6 -6 -6 -6 -6 -5 -4 -4 -4 -3 -3 -3 -3 -3 -3 -4 -4 -5 -5 -6 -6 -7 -7 -8 -8 -8
-1 -1 -2 -2 -2 -2 -2 -3 -3 -4 -4 -5 -5 -5 -6 -6 -6 -7 -7 -7 -7 -6 -6 -5 -4 -4 -4 -3 -3 -3 -3 -3 -4 -4 -5 -5 -6 -6 -7 -7 -8 -8 -8 -8
-2 -2 -2 -2 -2 -2 -3 -3 -4 -5 -5 -6 -6 -6 -6 -6 -7 -7 -7 -7 -7 -6 -6 -5 -5 -4 -4 -4 -4 -3 -4 -4 -4 -5 -5 -6 -6 -7 -7 -8 -8 -8 -8 -8
Wind_Speed
17 18 16 18 21 20 21 22 23 29 30 29 22 14 11 12 11 11 13 16 18 19 19 19 18 17 15 14 12 10 10 12 13 13 14 14 15 16 17 18 19 19 20 21
14 17 18 23 26 28 27 26 27 29 28 16 6 8 12 14 13 12 15 18 20 21 20 20 19 18 17 16 14 12 12 13 13 12 13 14 15 15 17 18 18 19 19 20
14 10 11 16 17 19 15 15 15 16 10 7 11 14 17 17 14 13 17 19 21 21 20 19 18 16 16 16 16 14 13 13 12 12 12 13 14 15 16 17 17 18 19 21
8 7 11 9 2 6 11 14 14 13 10 10 13 16 16 15 12 15 19 20 21 19 18 17 16 15 15 16 15 14 14 13 12 11 12 13 14 15 16 15 16 17 18 21
5 7 13 11 8 3 5 9 5 1 6 14 17 18 16 11 12 18 20 20 18 17 16 15 15 15 16 17 16 15 15 14 12 11 12 13 14 15 14 14 16 16 17 19
5 6 8 7 3 0 3 7 3 4 16 21 22 21 17 17 19 20 20 17 15 14 15 15 15 15 16 17 17 16 16 16 16 14 14 14 15 14 13 13 15 15 16 18
9 9 11 8 0 2 5 6 5 16 23 23 21 19 21 22 21 19 18 16 14 13 14 15 15 15 16 17 17 17 17 17 16 16 15 14 14 12 12 12 13 14 15 16
6 9 10 3 4 5 11 16 21 24 22 22 23 24 23 22 19 16 14 14 14 14 15 16 16 15 17 18 18 17 17 17 17 16 14 11 12 11 11 11 12 13 14 14
9 11 9 4 9 15 19 23 23 20 22 23 24 24 21 16 14 13 13 14 14 14 16 17 16 16 18 19 18 18 17 17 17 16 14 12 11 11 10 10 10 11 11 12
14 16 18 19 21 21 20 21 22 23 23 22 20 17 14 11 11 12 14 14 15 16 17 19 18 18 18 18 17 17 17 17 16 15 14 12 9 8 9 9 10 10 11 11
21 22 22 16 15 17 21 23 23 20 17 14 11 10 9 10 12 13 14 15 15 16 18 20 19 19 19 18 17 17 17 15 15 13 13 11 9 9 10 11 11 11 10 10
21 21 22 23 21 22 21 19 17 14 11 7 6 8 10 11 13 14 16 17 17 18 20 21 20 20 19 17 16 16 14 14 12 11 11 10 9 9 12 15 17 19 19 15
23 22 21 22 20 17 14 13 10 7 5 6 7 8 11 13 14 16 18 19 19 20 20 20 20 20 19 17 15 15 14 14 12 11 11 10 9 9 9 9 14 18 20 21
16 17 19 17 16 13 10 7 5 4 5 7 9 11 12 14 16 18 19 19 20 20 20 20 20 20 18 16 14 14 14 14 13 11 11 10 9 9 9 9 8 8 12 19
12 12 14 14 12 7 4 3 5 7 9 11 11 13 15 17 19 20 20 20 20 20 20 20 20 20 17 15 14 15 13 11 11 11 10 10 9 9 9 9 9 8 7 9
15 13 9 7 5 4 4 6 8 10 12 14 16 17 18 18 19 20 20 19 20 21 20 20 20 19 17 15 14 13 12 15 14 12 11 10 9 9 8 8 9 8 8 7
8 7 5 4 5 6 7 8 11 13 15 17 19 19 19 20 20 21 21 20 19 19 19 19 19 17 16 15 14 12 11 12 16 13 10 10 9 9 8 8 8 8 8 8
5 5 5 6 6 8 10 12 13 16 17 18 19 19 20 21 22 21 21 20 19 19 19 18 16 16 16 16 13 12 11 11 10 11 10 10 9 9 8 8 9 9 8 8
3 5 6 7 8 10 12 15 17 18 18 18 19 21 21 20 20 20 20 19 20 20 17 15 21 19 17 16 16 12 12 12 12 11 10 12 11 9 9 8 8 8 8 7
6 7 9 11 12 12 15 17 18 19 18 18 20 20 21 19 18 19 19 18 16 14 15 19 19 17 16 15 17 12 12 13 13 12 11 10 9 9 8 8 8 8 8 7
10 11 12 14 15 16 16 18 19 20 19 18 18 19 20 19 18 17 17 17 15 16 18 21 16 15 14 16 18 13 13 13 13 12 11 10 9 9 8 8 8 8 7 7
12 13 15 16 17 18 17 17 18 19 19 18 18 17 18 18 17 16 15 15 17 19 17 15 15 18 20 22 15 14 13 13 12 11 10 9 8 8 7 7 7 7 7 7
13 15 16 17 18 19 19 17 17 16 17 18 18 19 19 18 15 15 16 14 15 21 18 16 20 26 29 19 13 13 13 12 12 11 10 9 8 7 7 7 7 7 7 7
15 16 15 15 15 17 18 17 14 14 15 17 16 16 17 15 14 14 14 19 22 24 18 20 27 28 26 14 12 12 11 11 11 10 9 8 6 5 5 6 6 6 7 8
14 13 13 13 14 14 15 14 14 14 15 14 16 16 14 13 14 15 16 18 21 22 17 20 25 25 17 12 12 12 11 11 11 10 8 6 5 4 5 5 6 6 6 6
14 14 13 13 13 13 12 12 12 13 13 15 14 14 14 13 15 15 14 16 20 21 17 15 15 16 12 12 12 12 10 10 10 8 6 5 4 4 4 5 6 6 6 6
13 13 12 12 11 11 11 11 12 13 13 14 15 15 15 15 15 15 17 15 15 15 14 14 13 12 12 12 11 10 9 8 7 6 5 3 3 3 4 5 5 5 6 6
Wind_Direction
262 274 278 272 270 261 251 257 267 276 283 292 315 331 337 337 336 333 340 343 342 337 333 330 329 328 327 323 317 304 282 269 264 263 258 252 247 243 237 232 229 226 224 222
269 271 274 273 268 264 263 262 263 271 279 303 349 345 337 335 331 323 331 334 332 329 326 324 324 323 322 319 317 308 291 280 276 270 262 254 249 244 238 233 230 226 223 222
283 300 293 271 260 256 247 246 253 268 293 358 339 336 330 324 320 317 323 325 323 321 320 319 319 320 318 316 314 308 297 290 285 277 269 262 255 248 242 236 231 227 224 223
285 288 253 260 290 269 263 265 267 272 295 323 327 322 312 308 311 316 320 318 317 317 316 314 315 316 314 312 310 306 301 296 291 281 274 269 260 251 244 237 232 228 226 225
253 265 277 283 287 261 257 279 276 275 334 330 328 317 311 323 317 313 314 313 312 311 309 308 310 315 313 309 309 307 304 303 300 286 278 273 264 256 248 239 234 229 227 226
224 247 269 287 107 8 271 277 146 336 329 328 327 318 318 326 316 312 312 312 313 309 307 307 312 316 310 308 308 308 309 307 305 300 288 279 272 265 253 242 236 231 230 227
231 244 267 280 126 217 255 324 346 320 320 319 314 308 310 312 310 310 310 313 315 312 309 309 314 313 308 308 308 310 309 307 305 301 295 287 280 269 257 245 238 233 233 230
221 228 252 203 170 229 302 316 312 313 314 313 310 309 309 309 310 312 315 316 317 314 310 310 313 313 308 307 310 311 309 307 305 305 302 291 281 271 257 244 238 236 234 233
225 240 272 240 263 294 305 305 309 312 311 310 307 306 309 310 311 314 314 314 314 311 308 308 311 311 306 307 311 310 308 306 307 307 304 296 283 272 259 242 237 237 234 233
264 266 275 284 290 295 303 309 311 309 308 307 305 308 311 312 313 315 314 314 314 311 308 308 311 310 306 307 309 307 305 306 308 308 306 300 284 267 255 243 237 235 234 234
265 278 287 286 295 305 310 308 307 308 309 309 311 315 317 314 314 314 311 309 309 307 305 306 309 307 306 308 309 306 303 304 306 305 303 299 287 268 259 248 241 237 238 236
272 287 297 302 309 312 309 308 309 310 312 322 325 318 315 311 310 308 307 308 308 306 306 307 308 305 305 307 306 303 302 303 305 305 303 296 292 284 261 253 254 247 243 243
278 293 299 303 306 309 306 306 309 311 314 318 317 311 308 307 307 305 305 306 307 307 306 306 306 304 304 307 304 299 297 299 300 300 298 295 291 286 287 273 254 251 247 244
290 297 296 301 306 309 307 306 304 302 306 305 305 307 306 304 303 303 303 306 307 305 305 305 304 302 305 307 302 297 295 295 294 294 295 292 287 281 277 278 277 265 251 245
291 295 293 299 302 301 304 305 308 312 313 313 311 307 305 304 303 303 305 306 305 303 304 305 305 304 309 307 301 297 295 293 294 294 291 288 283 278 272 268 266 268 264 253
301 300 295 292 290 291 299 306 308 309 311 310 310 308 306 302 300 302 303 306 306 306 305 304 302 303 306 303 298 295 292 290 293 293 291 285 280 274 268 264 262 260 256 251
290 294 295 286 287 295 299 302 301 302 304 304 305 306 304 303 302 303 307 309 306 301 300 299 299 301 300 297 295 293 292 292 292 290 285 282 277 270 264 259 257 256 253 246
258 264 268 271 282 293 298 300 300 300 300 301 302 303 303 304 304 306 307 307 305 301 299 299 302 303 299 297 294 290 288 286 285 284 283 280 275 266 260 255 251 251 251 244
248 254 263 269 276 284 290 295 298 299 299 300 302 303 303 301 299 301 304 305 303 301 301 304 307 305 300 296 295 289 286 285 284 281 278 278 276 264 253 247 245 243 239 232
257 262 269 275 279 281 288 295 299 301 301 302 301 301 301 301 301 303 303 298 292 291 297 302 303 300 298 298 298 293 288 285 285 286 282 276 269 263 251 242 237 234 229 225
264 270 275 282 288 291 294 297 300 300 302 300 297 296 297 298 299 299 299 299 298 300 304 304 303 300 301 301 300 294 290 288 288 287 286 282 272 260 249 238 230 224 220 218
270 276 281 286 291 295 297 298 297 297 298 297 295 293 294 296 297 296 290 290 298 302 306 303 301 299 303 305 300 295 292 290 290 289 287 282 272 259 246 233 224 216 212 209
278 281 284 287 291 295 297 295 292 292 293 294 295 295 295 296 298 297 298 299 303 303 305 299 299 302 305 307 298 294 293 293 293 291 287 282 271 257 243 227 216 208 203 200
281 283 281 284 289 291 291 290 288 288 288 290 289 288 291 295 294 293 294 299 303 302 301 298 300 303 307 304 297 295 295 294 293 292 289 282 269 251 233 216 206 199 195 191
276 276 278 281 285 286 287 289 290 289 290 292 293 294 292 290 292 297 299 300 302 304 302 301 302 304 305 298 297 296 295 294 294 295 289 279 263 243 219 202 195 189 185 182
276 280 283 280 279 283 286 289 290 293 297 298 299 300 299 298 297 299 299 301 301 302 303 301 301 302 301 299 297 296 297 299 299 297 289 275 253 226 200 190 184 180 175 171
277 280 280 279 278 276 278 282 287 291 295 297 300 301 300 300 301 302 303 303 304 303 302 301 301 301 300 299 298 299 299 297 295 293 285 265 233 200 182 176 172 165 162 160
Height
1528 1525 1526 1526 1523 1520 1520 1512 1507 1492 1488 1481 1484 1487 1488 1486 1484 1481 1478 1474 1471 1467 1462 1457 1452 1447 1442 1437 1433 1428 1423 1418 1414 1409 1404 1400 1396 1392 1388 1385 1382 1380 1379 1378
1529 1525 1524 1521 1514 1509 1506 1502 1498 1492 1488 1486 1489 1489 1487 1484 1482 1478 1475 1472 1468 1464 1459 1453 1448 1442 1437 1432 1427 1421 1416 1412 1407 1401 1396 1392 1387 1382 1378 1375 1372 1370 1368 1368
1523 1523 1525 1514 1499 1497 1496 1492 1492 1488 1485 1489 1488 1487 1485 1482 1479 1476 1473 1469 1464 1460 1454 1449 1443 1437 1431 1426 1420 1415 1409 1404 1399 1393 1388 1383 1378 1373 1369 1365 1363 1360 1358 1358
1526 1527 1523 1495 1492 1493 1492 1488 1487 1487 1489 1489 1488 1486 1483 1478 1475 1472 1469 1464 1459 1454 1448 1443 1437 1431 1426 1420 1414 1408 1402 1397 1391 1385 1379 1374 1369 1364 1360 1356 1353 1350 1349 1348
1529 1521 1505 1494 1491 1492 1491 1486 1485 1486 1487 1486 1483 1479 1475 1474 1471 1468 1464 1459 1453 1448 1442 1436 1431 1425 1419 1413 1407 1400 1394 1388 1382 1376 1370 1364 1359 1355 1351 1347 1344 1341 1340 1339
1528 1527 1510 1488 1492 1492 1493 1486 1485 1485 1484 1481 1478 1473 1469 1470 1467 1462 1458 1452 1446 1441 1436 1430 1424 1418 1411 1405 1399 1392 1386 1380 1374 1368 1362 1356 1351 1346 1342 1338 1335 1333 1331 1331
1521 1518 1498 1487 1491 1493 1491 1482 1485 1483 1480 1478 1476 1472 1467 1464 1460 1456 1451 1446 1440 1435 1430 1424 1418 1411 1404 1397 1391 1385 1378 1372 1366 1360 1354 1348 1343 1338 1334 1331 1328 1325 1324 1323
1514 1511 1499 1486 1489 1487 1483 1482 1482 1479 1476 1473 1469 1465 1461 1456 1452 1448 1444 1440 1435 1429 1424 1418 1412 1404 1397 1390 1384 1377 1371 1364 1358 1353 1347 1341 1335 1331 1327 1323 1320 1318 1317 1316
1498 1492 1484 1485 1484 1483 1482 1479 1477 1474 1471 1468 1463 1458 1454 1450 1446 1443 1439 1434 1429 1423 1417 1412 1406 1399 1390 1383 1376 1369 1363 1357 1351 1346 1340 1334 1329 1324 1320 1317 1314 1312 1311 1310
1490 1481 1482 1482 1481 1480 1479 1476 1472 1469 1465 1461 1456 1452 1448 1445 1441 1438 1433 1428 1423 1417 1410 1404 1398 1392 1384 1376 1369 1362 1356 1350 1345 1339 1334 1328 1323 1319 1314 1311 1308 1306 1305 1305
1483 1480 1478 1476 1477 1476 1474 1471 1466 1462 1459 1455 1451 1447 1445 1441 1437 1433 1428 1423 1417 1410 1403 1396 1389 1383 1377 1370 1363 1356 1350 1344 1339 1333 1328 1322 1318 1313 1309 1305 1303 1301 1300 1300
1475 1475 1474 1472 1473 1471 1467 1463 1460 1456 1453 1450 1447 1444 1441 1437 1433 1428 1422 1416 1409 1403 1396 1388 1381 1374 1369 1363 1356 1350 1344 1338 1333 1328 1323 1317 1312 1307 1303 1300 1297 1294 1294 1294
1475 1473 1471 1468 1467 1464 1461 1457 1454 1452 1449 1447 1444 1441 1437 1433 1428 1422 1416 1409 1402 1395 1387 1380 1373 1367 1361 1355 1349 1344 1339 1333 1328 1323 1318 1313 1307 1302 1297 1294 1291 1289 1287 1287
1472 1470 1466 1463 1461 1458 1455 1452 1450 1448 1446 1443 1440 1436 1432 1427 1421 1415 1408 1401 1394 1386 1379 1372 1365 1359 1354 1348 1343 1338 1333 1328 1323 1318 1313 1308 1303 1298 1293 1289 1286 1283 1282 1281
1467 1465 1462 1458 1455 1453 1451 1449 1447 1445 1442 1439 1435 1431 1425 1419 1412 1406 1399 1392 1385 1378 1371 1365 1358 1352 1347 1341 1336 1331 1327 1322 1317 1312 1307 1303 1298 1293 1289 1285 1281 1279 1277 1276
1462 1459 1456 1454 1452 1450 1448 1446 1444 1441 1437 1433 1429 1424 1418 1411 1403 1396 1390 1384 1377 1369 1363 1357 1350 1345 1339 1334 1329 1324 1320 1315 1311 1306 1302 1297 1293 1288 1284 1280 1277 1274 1272 1272
1457 1454 1452 1451 1449 1447 1445 1443 1440 1436 1431 1427 1421 1415 1408 1401 1394 1388 1383 1377 1369 1362 1355 1349 1342 1337 1332 1328 1323 1318 1313 1308 1305 1300 1296 1291 1287 1283 1279 1275 1272 1269 1268 1267
1453 1452 1450 1448 1446 1444 1441 1438 1434 1429 1424 1419 1412 1406 1400 1393 1386 1379 1373 1366 1359 1353 1348 1342 1336 1330 1325 1320 1316 1311 1306 1302 1298 1294 1289 1285 1281 1276 1273 1269 1266 1264 1263 1263
1450 1449 1447 1445 1442 1439 1435 1431 1426 1421 1416 1410 1404 1397 1391 1385 1378 1371 1364 1358 1351 1344 1338 1334 1328 1322 1317 1313 1309 1304 1300 1295 1291 1287 1283 1278 1274 1270 1266 1263 1261 1259 1258 1258
1446 1445 1442 1439 1436 1432 1428 1423 1418 1413 1408 1402 1395 1388 1382 1376 1370 1363 1356 1350 1344 1338 1331 1325 1319 1314 1309 1305 1301 1297 1293 1289 1284 1280 1275 1271 1267 1263 1259 1257 1255 1254 1253 1254
1441 1438 1435 1432 1428 1424 1420 1416 1410 1403 1398 1393 1387 1379 1373 1366 1361 1354 1347 1340 1335 1330 1324 1317 1312 1307 1302 1298 1294 1290 1286 1281 1277 1272 1268 1264 1260 1256 1253 1251 1249 1248 1249 1250
1434 1431 1427 1424 1419 1415 1411 1407 1401 1395 1389 1383 1377 1371 1364 1357 1352 1346 1340 1334 1327 1322 1316 1309 1304 1300 1295 1291 1287 1282 1278 1274 1270 1265 1261 1257 1253 1249 1247 1245 1244 1244 1244 1246
1427 1423 1419 1415 1411 1405 1400 1396 1392 1386 1380 1375 1369 1362 1356 1350 1344 1338 1330 1325 1320 1314 1308 1302 1297 1292 1288 1284 1279 1275 1271 1267 1263 1258 1254 1250 1246 1243 1241 1239 1239 1239 1240 1242
1418 1414 1410 1406 1402 1396 1390 1386 1382 1377 1371 1365 1359 1354 1348 1341 1334 1330 1324 1317 1312 1306 1300 1294 1290 1285 1281 1276 1273 1269 1265 1260 1256 1251 1247 1243 1240 1237 1235 1235 1235 1236 1237 1239
1408 1404 1400 1396 1391 1386 1381 1377 1372 1367 1361 1356 1350 1345 1340 1334 1328 1321 1316 1309 1304 1298 1292 1287 1282 1278 1274 1270 1266 1262 1258 1254 1250 1245 1241 1237 1234 1232 1231 1231 1231 1233 1235 1237
1398 1394 1390 1386 1382 1378 1373 1369 1363 1358 1353 1347 1342 1337 1331 1326 1320 1314 1308 1302 1297 1291 1286 1280 1276 1272 1268 1264 1260 1257 1252 1248 1243 1239 1236 1232 1230 1229 1228 1228 1229 1231 1233 1236
1387 1383 1380 1376 1373 1369 1365 1360 1355 1350 1345 1340 1334 1328 1323 1318 1312 1307 1301 1296 1290 1285 1280 1275 1270 1266 1263 1259 1255 1251 1247 1242 1238 1234 1231 1229 1227 1226 1226 1227 1228 1230 1233 1236